"SCLK","SCET","ORBIT_NUMBER","ALTITUDE","LATITUDE_PLANEOGRAPHIC","LATITUDE_PLANETOCENTRIC","LOCAL_TRUE_SOLAR_TIME","WEST_LONGITUDE","X_SUN_DIR_DISTANCE","RHO_PRP_SUN_DISTANCE","SOLAR_ZENITH_ANGLE","ELECTRON_PLASMA_FREQUENCY","FPE_QUALITY","FPP_VERIFICATION","ELECTRON_PLASMA_DENSITY","ELECTRON_CYCLOTRON_PERIOD","FCP_QUALITY","B_MAGNITUDE"
"1/0365345160.17687",2014-11-29T12:46:04.211,13849,1564.00,41.33,41.07,"16:45:28",309.46,-1.220,0.800,146.65,5.30e+01,2,,3.48e+01,2.37e+00,1,1.51e+01
"1/0365345167.53273",2014-11-29T12:46:11.754,13849,1553.00,41.61,41.35,"16:45:35",309.46,-1.210,0.800,146.51,5.40e+01,2,,3.62e+01,2.30e+00,1,1.55e+01
"1/0365345175.23389",2014-11-29T12:46:19.298,13849,1542.00,41.89,41.63,"16:43:25",309.47,-1.210,0.800,146.37,5.10e+01,2,,3.23e+01,2.43e+00,1,1.47e+01
"1/0365345182.58975",2014-11-29T12:46:26.841,13849,1531.00,42.18,41.91,"16:43:33",309.47,-1.210,0.800,146.23,4.90e+01,2,,2.98e+01,2.55e+00,1,1.40e+01
"1/0365345190.29025",2014-11-29T12:46:34.384,13849,1521.00,42.46,42.20,"16:43:40",309.47,-1.200,0.800,146.09,4.60e+01,2,,2.62e+01,2.54e+00,1,1.41e+01
"1/0365345197.64611",2014-11-29T12:46:41.927,13849,1510.00,42.75,42.48,"16:41:30",309.48,-1.200,0.800,145.94,4.50e+01,1,,2.51e+01,2.55e+00,1,1.40e+01
"1/0365345205.34661",2014-11-29T12:46:49.470,13849,1499.00,43.04,42.77,"16:41:37",309.48,-1.190,0.810,145.79,4.60e+01,1,,2.62e+01,2.73e+00,1,1.31e+01
"1/0365345213.04776",2014-11-29T12:46:57.014,13849,1488.00,43.33,43.06,"16:41:45",309.48,-1.190,0.810,145.64,5.00e+01,2,,3.10e+01,2.65e+00,2,1.35e+01
"1/0365345220.40362",2014-11-29T12:47:04.557,13849,1478.00,43.62,43.35,"16:41:52",309.48,-1.180,0.810,145.49,4.70e+01,1,,2.74e+01,2.70e+00,1,1.32e+01
"1/0365345228.10412",2014-11-29T12:47:12.100,13849,1467.00,43.91,43.64,"16:41:59",309.48,-1.180,0.810,145.34,4.50e+01,1,,2.51e+01,2.64e+00,1,1.35e+01
"1/0365345235.45998",2014-11-29T12:47:19.643,13849,1456.00,44.20,43.93,"16:42:07",309.48,-1.170,0.810,145.18,4.60e+01,1,,2.62e+01,2.59e+00,1,1.38e+01
"1/0365345243.16048",2014-11-29T12:47:27.186,13849,1446.00,44.50,44.22,"16:42:14",309.48,-1.170,0.810,145.02,4.40e+01,2,,2.40e+01,2.55e+00,1,1.40e+01
"1/0365345250.51700",2014-11-29T12:47:34.730,13849,1435.00,44.79,44.52,"16:42:21",309.48,-1.160,0.810,144.86,4.10e+01,2,,2.08e+01,2.66e+00,1,1.34e+01
"1/0365345258.21750",2014-11-29T12:47:42.273,13849,1425.00,45.09,44.81,"16:42:29",309.48,-1.160,0.820,144.70,4.20e+01,2,,2.19e+01,2.56e+00,1,1.40e+01
"1/0365345265.57336",2014-11-29T12:47:49.816,13849,1414.00,45.38,45.11,"16:42:36",309.48,-1.150,0.820,144.53,4.20e+01,2,,2.19e+01,2.51e+00,1,1.42e+01
"1/0365345273.27386",2014-11-29T12:47:57.359,13849,1404.00,45.68,45.41,"16:42:43",309.48,-1.150,0.820,144.36,4.10e+01,2,,2.08e+01,2.69e+00,1,1.33e+01
"1/0365345280.63038",2014-11-29T12:48:04.903,13849,1393.00,45.98,45.71,"16:42:51",309.48,-1.140,0.820,144.19,4.00e+01,1,,1.98e+01,2.67e+00,2,1.34e+01
"1/0365345288.33088",2014-11-29T12:48:12.446,13849,1383.00,46.29,46.01,"16:45:15",309.47,-1.140,0.820,144.02,3.90e+01,1,,1.89e+01,,,
"1/0365345296.03138",2014-11-29T12:48:19.989,13849,1372.00,46.59,46.31,"16:45:23",309.47,-1.130,0.820,143.85,4.40e+01,2,,2.40e+01,2.51e+00,1,1.42e+01
"1/0365345303.38724",2014-11-29T12:48:27.532,13849,1362.00,46.89,46.62,"16:45:30",309.47,-1.130,0.830,143.67,4.80e+01,1,,2.86e+01,2.71e+00,1,1.32e+01
"1/0365345311.08774",2014-11-29T12:48:35.075,13849,1351.00,47.20,46.92,"16:47:55",309.46,-1.120,0.830,143.49,4.40e+01,2,,2.40e+01,2.93e+00,1,1.22e+01
"1/0365345318.44425",2014-11-29T12:48:42.619,13849,1341.00,47.51,47.23,"16:48:02",309.46,-1.120,0.830,143.31,5.00e+01,2,,3.10e+01,3.01e+00,1,1.19e+01
"1/0365345326.14475",2014-11-29T12:48:50.162,13849,1331.00,47.81,47.54,"16:50:27",309.45,-1.110,0.830,143.13,4.70e+01,1,,2.74e+01,2.94e+00,1,1.21e+01
"1/0365345333.50061",2014-11-29T12:48:57.705,13849,1321.00,48.12,47.84,"16:52:52",309.44,-1.110,0.830,142.94,4.70e+01,1,,2.74e+01,3.07e+00,1,1.16e+01
"1/0365345341.20111",2014-11-29T12:49:05.248,13849,1310.00,48.43,48.16,"16:52:59",309.44,-1.100,0.830,142.75,4.70e+01,1,,2.74e+01,3.09e+00,1,1.16e+01
"1/0365345348.55697",2014-11-29T12:49:12.791,13849,1300.00,48.75,48.47,"16:55:24",309.43,-1.100,0.840,142.56,4.90e+01,2,,2.98e+01,3.05e+00,1,1.17e+01
"1/0365345356.25813",2014-11-29T12:49:20.335,13849,1290.00,49.06,48.78,"16:57:49",309.42,-1.090,0.840,142.37,5.00e+01,2,,3.10e+01,3.11e+00,1,1.15e+01
"1/0365345363.61399",2014-11-29T12:49:27.878,13849,1280.00,49.38,49.10,"17:00:14",309.41,-1.090,0.840,142.17,5.30e+01,2,,3.48e+01,3.18e+00,1,1.12e+01
"1/0365345371.31449",2014-11-29T12:49:35.421,13849,1270.00,49.69,49.41,"17:02:39",309.40,-1.080,0.840,141.98,5.50e+01,2,,3.75e+01,3.09e+00,1,1.15e+01
"1/0365345379.01499",2014-11-29T12:49:42.964,13849,1259.00,50.01,49.73,"17:05:04",309.39,-1.080,0.840,141.78,5.70e+01,2,,4.03e+01,2.93e+00,1,1.22e+01
"1/0365345386.37085",2014-11-29T12:49:50.507,13849,1249.00,50.33,50.05,"17:07:28",309.38,-1.070,0.840,141.58,5.70e+01,2,,4.03e+01,3.03e+00,1,1.18e+01
"1/0365345394.07201",2014-11-29T12:49:58.051,13849,1239.00,50.65,50.37,"17:09:53",309.37,-1.070,0.850,141.37,6.00e+01,2,,4.46e+01,2.95e+00,1,1.21e+01
"1/0365345401.42787",2014-11-29T12:50:05.594,13849,1229.00,50.97,50.69,"17:12:18",309.36,-1.060,0.850,141.17,5.90e+01,2,,4.32e+01,3.06e+00,1,1.17e+01
"1/0365345409.12837",2014-11-29T12:50:13.137,13849,1219.00,51.29,51.01,"17:14:43",309.35,-1.050,0.850,140.96,4.90e+01,2,,2.98e+01,,,
"1/0365345416.48423",2014-11-29T12:50:20.680,13849,1209.00,51.62,51.34,"17:19:25",309.33,-1.050,0.850,140.75,6.20e+01,2,,4.77e+01,,,
"1/0365345424.18473",2014-11-29T12:50:28.223,13849,1199.00,51.94,51.66,"17:21:50",309.32,-1.040,0.850,140.54,6.30e+01,2,,4.92e+01,2.84e+00,1,1.26e+01
"1/0365345431.54124",2014-11-29T12:50:35.767,13849,1190.00,52.27,51.99,"17:26:32",309.30,-1.040,0.860,140.32,6.50e+01,2,,5.24e+01,,,
"1/0365345439.24174",2014-11-29T12:50:43.310,13849,1180.00,52.60,52.32,"17:28:57",309.29,-1.030,0.860,140.11,6.00e+01,2,,4.46e+01,3.30e+00,1,1.08e+01
"1/0365345446.59760",2014-11-29T12:50:50.853,13849,1170.00,52.93,52.65,"17:33:40",309.27,-1.030,0.860,139.89,5.60e+01,2,,3.89e+01,3.34e+00,1,1.07e+01
"1/0365345454.29810",2014-11-29T12:50:58.396,13849,1160.00,53.26,52.98,"17:38:22",309.25,-1.020,0.860,139.67,5.50e+01,2,,3.75e+01,,,
"1/0365345461.65396",2014-11-29T12:51:05.939,13849,1150.00,53.59,53.31,"17:43:04",309.23,-1.020,0.860,139.44,5.50e+01,2,,3.75e+01,,,
"1/0365345469.35512",2014-11-29T12:51:13.483,13849,1141.00,53.93,53.65,"17:47:47",309.21,-1.010,0.870,139.22,5.70e+01,2,,4.03e+01,3.43e+00,1,1.04e+01
"1/0365345477.05562",2014-11-29T12:51:21.026,13849,1131.00,54.26,53.98,"17:52:29",309.19,-1.010,0.870,138.99,6.60e+01,2,,5.40e+01,3.22e+00,2,1.11e+01
"1/0365345484.41148",2014-11-29T12:51:28.569,13849,1121.00,54.60,54.32,"17:57:11",309.17,-1.000,0.870,138.76,6.80e+01,2,,5.73e+01,3.47e+00,1,1.03e+01
"1/0365345492.11198",2014-11-29T12:51:36.112,13849,1112.00,54.94,54.66,"18:04:11",309.14,-0.990,0.870,138.53,6.40e+01,2,,5.08e+01,3.26e+00,1,1.09e+01
"1/0365345499.46784",2014-11-29T12:51:43.655,13849,1102.00,55.27,55.00,"18:08:54",309.12,-0.990,0.880,138.29,6.70e+01,2,,5.57e+01,3.69e+00,1,9.67e+00
"1/0365345507.16900",2014-11-29T12:51:51.199,13849,1093.00,55.62,55.34,"18:15:54",309.09,-0.980,0.880,138.06,6.40e+01,2,,5.08e+01,3.98e+00,1,8.98e+00
"1/0365345514.52486",2014-11-29T12:51:58.742,13849,1083.00,55.96,55.68,"18:20:36",309.07,-0.980,0.880,137.82,5.70e+01,2,,4.03e+01,3.85e+00,1,9.29e+00
"1/0365345522.22536",2014-11-29T12:52:06.285,13849,1074.00,56.30,56.03,"18:27:36",309.04,-0.970,0.880,137.58,5.50e+01,2,,3.75e+01,4.32e+00,1,8.27e+00
"1/0365345529.58122",2014-11-29T12:52:13.828,13849,1064.00,56.65,56.37,"18:34:36",309.01,-0.960,0.880,137.33,6.10e+01,2,,4.61e+01,,,
"1/0365345537.28172",2014-11-29T12:52:21.371,13849,1055.00,56.99,56.72,"18:41:36",308.98,-0.960,0.890,137.09,5.30e+01,2,,3.48e+01,,,
"1/0365345544.63823",2014-11-29T12:52:28.915,13849,1046.00,57.34,57.07,"18:50:53",308.94,-0.950,0.890,136.84,5.60e+01,2,,3.89e+01,,,
"1/0365345552.33873",2014-11-29T12:52:36.458,13849,1036.00,57.69,57.42,"18:57:53",308.91,-0.950,0.890,136.59,5.20e+01,2,,3.35e+01,4.49e+00,1,7.95e+00
"1/0365345560.03923",2014-11-29T12:52:44.001,13849,1027.00,58.04,57.77,"19:07:10",308.87,-0.940,0.890,136.34,5.20e+01,2,,3.35e+01,5.36e+00,1,6.66e+00
"1/0365345567.39509",2014-11-29T12:52:51.544,13849,1018.00,58.39,58.12,"19:14:10",308.84,-0.940,0.900,136.08,5.00e+01,2,,3.10e+01,,,
"1/0365345575.09559",2014-11-29T12:52:59.087,13849,1009.00,58.75,58.48,"19:23:27",308.80,-0.930,0.900,135.83,5.10e+01,2,,3.23e+01,,,
"1/0365345582.45211",2014-11-29T12:53:06.631,13849,1000.00,59.10,58.83,"19:32:45",308.76,-0.920,0.900,135.57,5.60e+01,2,,3.89e+01,,,
"1/0365345590.15261",2014-11-29T12:53:14.174,13849,991.00,59.46,59.19,"19:42:02",308.72,-0.920,0.900,135.31,5.70e+01,2,,4.03e+01,,,
"1/0365345597.50847",2014-11-29T12:53:21.717,13849,982.00,59.81,59.55,"19:53:37",308.67,-0.910,0.900,135.05,5.00e+01,1,,3.10e+01,2.85e+00,1,1.25e+01
"1/0365345627.62185",2014-11-29T12:53:51.890,13849,946.00,61.26,61.00,"20:37:39",308.48,-0.890,0.910,133.98,,,,,2.33e+00,1,1.53e+01
"1/0365345635.32235",2014-11-29T12:53:59.433,13849,937.00,61.62,61.37,"20:51:32",308.42,-0.880,0.920,133.70,,,,,1.42e+00,1,2.51e+01
"1/0365345650.37871",2014-11-29T12:54:14.519,13849,920.00,62.36,62.10,"21:19:16",308.30,-0.870,0.920,133.15,,,,,1.76e+00,1,2.03e+01
"1/0365345658.07986",2014-11-29T12:54:22.063,13849,911.00,62.73,62.47,"21:33:09",308.24,-0.860,0.920,132.87,,,,,2.08e+00,1,1.72e+01
"1/0365345680.49208",2014-11-29T12:54:44.692,13849,886.00,63.84,63.59,"22:19:21",308.04,-0.840,0.930,132.02,,,,,2.06e+00,1,1.74e+01
"1/0365345703.24960",2014-11-29T12:55:07.322,13849,861.00,64.97,64.73,"23:12:26",307.81,-0.820,0.940,131.15,,,,,1.66e+00,1,2.15e+01
"1/0365345710.60546",2014-11-29T12:55:14.865,13849,852.00,65.35,65.11,"23:33:11",307.72,-0.820,0.940,130.86,,,,,1.75e+00,1,2.04e+01
"1/0365345718.30596",2014-11-29T12:55:22.408,13849,844.00,65.73,65.49,"23:51:38",307.64,-0.810,0.940,130.56,5.00e+01,1,,3.10e+01,1.65e+00,1,2.16e+01
"1/0365345726.00646",2014-11-29T12:55:29.951,13849,836.00,66.11,65.87,"00:14:40",307.54,-0.800,0.940,130.27,5.10e+01,1,,3.23e+01,1.30e+00,1,2.75e+01
"1/0365345733.36298",2014-11-29T12:55:37.495,13849,828.00,66.49,66.26,"00:35:25",307.45,-0.800,0.950,129.97,,,,,1.55e+00,1,2.30e+01
"1/0365345741.06348",2014-11-29T12:55:45.038,13849,820.00,66.87,66.64,"00:58:28",307.35,-0.790,0.950,129.67,,,,,1.67e+00,1,2.14e+01
"1/0365345748.41934",2014-11-29T12:55:52.581,13849,812.00,67.26,67.03,"01:23:48",307.24,-0.780,0.950,129.36,,,,,1.67e+00,1,2.15e+01
"1/0365345756.11984",2014-11-29T12:56:00.124,13849,804.00,67.64,67.42,"01:49:08",307.13,-0.780,0.950,129.06,,,,,1.58e+00,1,2.25e+01
"1/0365345763.47570",2014-11-29T12:56:07.667,13849,796.00,68.03,67.81,"02:14:28",307.02,-0.770,0.960,128.75,,,,,1.77e+00,1,2.02e+01
"1/0365345771.17685",2014-11-29T12:56:15.211,13849,788.00,68.42,68.20,"02:44:23",306.89,-0.760,0.960,128.44,,,,,1.56e+00,1,2.28e+01
"1/0365345778.53271",2014-11-29T12:56:22.754,13849,780.00,68.81,68.60,"03:12:00",306.77,-0.760,0.960,128.13,,,,,1.49e+00,1,2.40e+01
"1/0365345793.58907",2014-11-29T12:56:37.840,13849,765.00,69.60,69.39,"04:16:25",306.49,-0.740,0.970,127.50,5.30e+01,2,,3.48e+01,1.87e+00,1,1.91e+01
"1/0365345801.29023",2014-11-29T12:56:45.384,13849,758.00,69.99,69.78,"04:48:37",306.35,-0.740,0.970,127.18,6.10e+01,2,,4.61e+01,2.16e+00,1,1.65e+01
"1/0365345808.64609",2014-11-29T12:56:52.927,13849,750.00,70.38,70.18,"05:25:25",306.19,-0.730,0.970,126.86,,,,,1.51e+00,1,2.36e+01
"1/0365345816.34659",2014-11-29T12:57:00.470,13849,743.00,70.78,70.58,"06:02:12",306.03,-0.720,0.970,126.54,,,,,1.66e+00,1,2.15e+01
"1/0365345824.04709",2014-11-29T12:57:08.013,13849,735.00,71.18,70.98,"06:41:17",305.86,-0.720,0.970,126.22,,,,,1.50e+00,1,2.37e+01
"1/0365345831.40295",2014-11-29T12:57:15.556,13849,728.00,71.58,71.38,"07:22:40",305.68,-0.710,0.980,125.90,,,,,1.37e+00,1,2.60e+01
"1/0365345839.10411",2014-11-29T12:57:23.100,13849,720.00,71.98,71.79,"08:06:20",305.49,-0.700,0.980,125.57,,,,,1.51e+00,1,2.37e+01
"1/0365345846.45997",2014-11-29T12:57:30.643,13849,713.00,72.38,72.19,"08:52:18",305.29,-0.700,0.980,125.24,,,,,1.55e+00,1,2.30e+01
"1/0365345854.16047",2014-11-29T12:57:38.186,13849,706.00,72.78,72.60,"09:40:33",305.08,-0.690,0.980,124.91,,,,,1.69e+00,1,2.11e+01
"1/0365345861.51633",2014-11-29T12:57:45.729,13849,699.00,73.18,73.00,"10:33:23",304.85,-0.680,0.990,124.58,,,,,1.66e+00,1,2.15e+01
"1/0365345869.21683",2014-11-29T12:57:53.272,13849,692.00,73.59,73.41,"11:26:13",304.62,-0.680,0.990,124.24,,,,,1.81e+00,1,1.98e+01
"1/0365345876.57334",2014-11-29T12:58:00.816,13849,685.00,73.99,73.82,"12:23:38",304.37,-0.670,0.990,123.91,,,,,1.77e+00,1,2.02e+01
"1/0365345884.27384",2014-11-29T12:58:08.359,13849,678.00,74.40,74.23,"13:25:38",304.10,-0.660,0.990,123.57,4.40e+01,2,,2.40e+01,1.84e+00,1,1.94e+01
"1/0365345891.62970",2014-11-29T12:58:15.902,13849,671.00,74.81,74.64,"14:29:56",303.82,-0.650,1.000,123.23,,,,,1.56e+00,1,2.29e+01
"1/0365345899.33020",2014-11-29T12:58:23.445,13849,665.00,75.21,75.05,"15:38:48",303.52,-0.650,1.000,122.89,,,,,1.60e+00,1,2.24e+01
"1/0365345907.03070",2014-11-29T12:58:30.988,13849,658.00,75.62,75.46,"16:52:16",303.20,-0.640,1.000,122.55,3.90e+01,1,,1.89e+01,1.73e+00,1,2.06e+01
"1/0365345914.38722",2014-11-29T12:58:38.532,13849,651.00,76.03,75.88,"18:10:19",302.86,-0.630,1.000,122.20,6.00e+01,2,,4.46e+01,,,
"1/0365345922.08772",2014-11-29T12:58:46.075,13849,645.00,76.44,76.29,"19:35:14",302.49,-0.630,1.000,121.86,6.60e+01,2,,5.40e+01,1.85e+00,1,1.93e+01
"1/0365345929.44358",2014-11-29T12:58:53.618,13849,638.00,76.85,76.71,"21:04:44",302.10,-0.620,1.010,121.51,8.30e+01,2,,8.54e+01,1.63e+00,1,2.19e+01
"1/0365345937.14408",2014-11-29T12:59:01.161,13849,632.00,77.26,77.12,"22:41:07",301.68,-0.610,1.010,121.16,9.70e+01,2,,1.17e+02,1.72e+00,1,2.08e+01
"1/0365345944.49994",2014-11-29T12:59:08.704,13849,625.00,77.68,77.54,"00:24:22",301.23,-0.600,1.010,120.81,7.60e+01,2,,7.16e+01,1.40e+00,1,2.56e+01
"1/0365345952.20110",2014-11-29T12:59:16.248,13849,619.00,78.09,77.95,"02:14:30",300.75,-0.600,1.010,120.45,7.80e+01,2,,7.54e+01,2.10e+00,1,1.70e+01
"1/0365345959.55696",2014-11-29T12:59:23.791,13849,613.00,78.50,78.37,"04:13:48",300.23,-0.590,1.010,120.10,8.30e+01,2,,8.54e+01,1.91e+00,1,1.87e+01
"1/0365345967.25746",2014-11-29T12:59:31.334,13849,607.00,78.91,78.79,"06:22:16",299.67,-0.580,1.020,119.74,8.50e+01,2,,8.96e+01,,,
"1/0365345974.61332",2014-11-29T12:59:38.877,13849,601.00,79.33,79.20,"08:44:28",299.05,-0.580,1.020,119.39,8.70e+01,2,,9.39e+01,1.98e+00,1,1.80e+01
"1/0365345982.31382",2014-11-29T12:59:46.420,13849,595.00,79.74,79.62,"11:15:51",298.39,-0.570,1.020,119.03,6.80e+01,2,,5.73e+01,1.68e+00,1,2.13e+01
"1/0365345990.01497",2014-11-29T12:59:53.964,13849,589.00,80.15,80.04,"14:01:00",297.67,-0.560,1.020,118.66,8.30e+01,2,,8.54e+01,1.67e+00,1,2.14e+01
"1/0365345997.37083",2014-11-29T13:00:01.507,13849,583.00,80.56,80.45,"17:02:10",296.88,-0.550,1.030,118.30,6.80e+01,2,,5.73e+01,1.59e+00,1,2.24e+01
"1/0365346005.07133",2014-11-29T13:00:09.050,13849,577.00,80.97,80.87,"20:21:41",296.01,-0.550,1.030,117.94,6.60e+01,2,,5.40e+01,1.67e+00,1,2.14e+01
"1/0365346012.42719",2014-11-29T13:00:16.593,13849,572.00,81.38,81.28,"00:01:49",295.05,-0.540,1.030,117.57,7.70e+01,2,,7.35e+01,1.77e+00,1,2.02e+01
"1/0365346020.12769",2014-11-29T13:00:24.136,13849,566.00,81.79,81.69,"04:02:35",294.00,-0.530,1.030,117.20,6.60e+01,2,,5.40e+01,1.54e+00,1,2.31e+01
"1/0365346027.48421",2014-11-29T13:00:31.680,13849,560.00,82.20,82.10,"08:33:08",292.82,-0.520,1.030,116.83,5.70e+01,2,,4.03e+01,,,
"1/0365346035.18471",2014-11-29T13:00:39.223,13849,555.00,82.60,82.51,"13:31:12",291.52,-0.520,1.040,116.46,6.40e+01,2,,5.08e+01,1.58e+00,1,2.26e+01
"1/0365346042.54057",2014-11-29T13:00:46.766,13849,550.00,83.00,82.91,"19:08:13",290.05,-0.510,1.040,116.09,8.50e+01,2,,8.96e+01,,,
"1/0365346050.24107",2014-11-29T13:00:54.309,13849,544.00,83.39,83.31,"01:24:12",288.41,-0.500,1.040,115.72,9.70e+01,2,,1.17e+02,,,
"1/0365346057.59693",2014-11-29T13:01:01.852,13849,539.00,83.78,83.71,"08:30:37",286.55,-0.490,1.040,115.34,9.00e+01,2,,1.00e+02,1.81e+00,2,1.97e+01
"1/0365346065.29809",2014-11-29T13:01:09.396,13849,534.00,84.17,84.10,"16:36:36",284.43,-0.490,1.040,114.97,1.03e+02,2,,1.32e+02,1.92e+00,1,1.86e+01
"1/0365346072.65395",2014-11-29T13:01:16.939,13849,529.00,84.54,84.48,"01:51:21",282.01,-0.480,1.040,114.59,1.16e+02,2,,1.67e+02,1.65e+00,2,2.16e+01
"1/0365346080.35445",2014-11-29T13:01:24.482,13849,524.00,84.91,84.84,"12:28:36",279.23,-0.470,1.050,114.21,1.19e+02,2,,1.76e+02,1.51e+00,1,2.36e+01
"1/0365346088.05495",2014-11-29T13:01:32.025,13849,519.00,85.26,85.20,"00:46:41",276.01,-0.460,1.050,113.83,1.01e+02,2,,1.26e+02,1.47e+00,2,2.43e+01
"1/0365346095.41081",2014-11-29T13:01:39.568,13849,514.00,85.59,85.54,"15:01:40",272.28,-0.460,1.050,113.45,1.00e+02,2,,1.24e+02,1.70e+00,2,2.10e+01
"1/0365346103.11196",2014-11-29T13:01:47.112,13849,510.00,85.91,85.85,"07:34:09",267.95,-0.450,1.050,113.06,1.13e+02,2,,1.58e+02,2.19e+00,1,1.63e+01
"1/0365346110.46782",2014-11-29T13:01:54.655,13849,505.00,86.19,86.14,"02:47:04",262.92,-0.440,1.050,112.68,1.31e+02,2,,2.13e+02,,,
"1/0365346118.16832",2014-11-29T13:02:02.198,13849,500.00,86.45,86.40,"01:01:02",257.10,-0.430,1.060,112.29,1.37e+02,2,,2.33e+02,1.58e+00,1,2.26e+01
"1/0365346125.52418",2014-11-29T13:02:09.741,13849,496.00,86.66,86.61,"02:25:13",250.45,-0.420,1.060,111.91,1.30e+02,2,,2.10e+02,,,
"1/0365346133.22468",2014-11-29T13:02:17.284,13849,491.00,86.82,86.77,"06:50:28",243.01,-0.420,1.060,111.52,1.10e+02,2,,1.50e+02,2.21e+00,1,1.62e+01
"1/0365346140.58120",2014-11-29T13:02:24.828,13849,487.00,86.92,86.88,"13:46:58",234.91,-0.410,1.060,111.13,1.01e+02,2,,1.26e+02,2.81e+00,1,1.27e+01
"1/0365346148.28170",2014-11-29T13:02:32.371,13849,483.00,86.95,86.91,"22:12:51",226.42,-0.400,1.060,110.74,1.24e+02,2,,1.91e+02,,,
"1/0365346155.63756",2014-11-29T13:02:39.914,13849,479.00,86.92,86.88,"06:45:37",217.90,-0.390,1.060,110.34,1.26e+02,2,,1.97e+02,,,
"1/0365346163.33806",2014-11-29T13:02:47.457,13849,475.00,86.82,86.78,"14:00:28",209.72,-0.390,1.070,109.95,1.14e+02,2,,1.61e+02,,,
"1/0365346171.03856",2014-11-29T13:02:55.000,13849,471.00,86.66,86.62,"18:53:12",202.16,-0.380,1.070,109.56,1.03e+02,2,,1.32e+02,2.72e+00,1,1.31e+01
"1/0365346178.39507",2014-11-29T13:03:02.544,13849,467.00,86.45,86.40,"20:44:54",195.39,-0.370,1.070,109.16,7.60e+01,2,,7.16e+01,,,
"1/0365346186.09558",2014-11-29T13:03:10.087,13849,463.00,86.19,86.14,"19:28:40",189.44,-0.360,1.070,108.76,5.70e+01,2,,4.03e+01,,,
"1/0365346193.45144",2014-11-29T13:03:17.630,13849,459.00,85.90,85.85,"15:09:05",184.29,-0.350,1.070,108.37,6.60e+01,2,,5.40e+01,2.36e+00,1,1.51e+01
"1/0365346201.15194",2014-11-29T13:03:25.173,13849,456.00,85.58,85.52,"08:04:29",179.86,-0.350,1.070,107.97,8.10e+01,2,,8.14e+01,2.47e+00,1,1.44e+01
"1/0365346208.50780",2014-11-29T13:03:32.716,13849,452.00,85.23,85.17,"22:40:05",176.04,-0.340,1.070,107.57,6.00e+01,2,,4.46e+01,2.69e+00,1,1.33e+01
"1/0365346216.20895",2014-11-29T13:03:40.260,13849,449.00,84.86,84.80,"11:14:13",172.75,-0.330,1.080,107.17,1.02e+02,2,,1.29e+02,2.40e+00,2,1.49e+01
"1/0365346223.56481",2014-11-29T13:03:47.803,13849,445.00,84.48,84.41,"22:05:13",169.91,-0.320,1.080,106.76,8.30e+01,2,,8.54e+01,2.40e+00,1,1.49e+01
"1/0365346231.26531",2014-11-29T13:03:55.346,13849,442.00,84.09,84.02,"07:33:43",167.43,-0.320,1.080,106.36,8.70e+01,2,,9.39e+01,2.54e+00,1,1.41e+01
"1/0365346238.62117",2014-11-29T13:04:02.889,13849,439.00,83.68,83.61,"15:48:52",165.27,-0.310,1.080,105.96,1.42e+02,2,,2.50e+02,,,
"1/0365346246.32167",2014-11-29T13:04:10.432,13849,436.00,83.27,83.19,"23:04:27",163.37,-0.300,1.080,105.55,1.54e+02,2,,2.94e+02,,,
"1/0365346254.02283",2014-11-29T13:04:17.976,13849,433.00,82.85,82.76,"05:27:18",161.70,-0.290,1.080,105.15,1.58e+02,2,,3.10e+02,,,
"1/0365346261.37869",2014-11-29T13:04:25.519,13849,430.00,82.42,82.33,"11:08:54",160.21,-0.280,1.080,104.74,1.51e+02,2,,2.83e+02,,,
"1/0365346269.07919",2014-11-29T13:04:33.062,13849,427.00,81.99,81.89,"16:13:51",158.88,-0.280,1.080,104.33,1.50e+02,2,,2.79e+02,,,
"1/0365346276.43505",2014-11-29T13:04:40.605,13849,424.00,81.55,81.45,"20:46:42",157.69,-0.270,1.090,103.92,1.46e+02,2,,2.64e+02,,,
"1/0365346284.13555",2014-11-29T13:04:48.148,13849,422.00,81.11,81.00,"00:54:20",156.61,-0.260,1.090,103.51,1.40e+02,2,,2.43e+02,2.98e+00,1,1.20e+01
"1/0365346291.49206",2014-11-29T13:04:55.692,13849,419.00,80.67,80.55,"04:36:46",155.64,-0.250,1.090,103.10,1.49e+02,2,,2.75e+02,3.08e+00,1,1.16e+01
"1/0365346299.19257",2014-11-29T13:05:03.235,13849,417.00,80.22,80.10,"07:58:34",154.76,-0.240,1.090,102.69,1.59e+02,2,,3.14e+02,,,
"1/0365346306.54843",2014-11-29T13:05:10.778,13849,414.00,79.77,79.65,"11:02:02",153.96,-0.230,1.090,102.28,1.68e+02,2,,3.50e+02,3.53e+00,1,1.01e+01
"1/0365346314.24893",2014-11-29T13:05:18.321,13849,412.00,79.32,79.19,"13:51:45",153.22,-0.230,1.090,101.87,1.83e+02,2,,4.15e+02,,,
"1/0365346321.60479",2014-11-29T13:05:25.864,13849,410.00,78.86,78.73,"16:25:26",152.55,-0.220,1.090,101.45,1.72e+02,2,,3.67e+02,,,
"1/0365346329.30594",2014-11-29T13:05:33.408,13849,408.00,78.40,78.26,"18:47:39",151.93,-0.210,1.090,101.04,2.18e+02,2,,5.89e+02,,,
"1/0365346337.00644",2014-11-29T13:05:40.951,13849,406.00,77.94,77.80,"20:58:24",151.36,-0.200,1.090,100.63,2.15e+02,2,,5.73e+02,,,
"1/0365346344.36230",2014-11-29T13:05:48.494,13849,404.00,77.48,77.33,"22:59:59",150.83,-0.190,1.100,100.21,2.26e+02,2,,6.33e+02,,,
"1/0365346352.06280",2014-11-29T13:05:56.037,13849,402.00,77.02,76.87,"00:52:25",150.34,-0.190,1.100,99.80,2.30e+02,2,,6.56e+02,2.19e+00,1,1.63e+01
"1/0365346359.41866",2014-11-29T13:06:03.580,13849,400.00,76.56,76.40,"02:35:40",149.89,-0.180,1.100,99.38,2.24e+02,2,,6.22e+02,2.03e+00,1,1.76e+01
"1/0365346367.11982",2014-11-29T13:06:11.124,13849,399.00,76.09,75.93,"04:14:20",149.46,-0.170,1.100,98.96,2.38e+02,2,,7.02e+02,1.83e+00,2,1.96e+01
"1/0365346374.47568",2014-11-29T13:06:18.667,13849,397.00,75.62,75.45,"05:43:50",149.07,-0.160,1.100,98.55,2.66e+02,2,,8.77e+02,1.82e+00,1,1.96e+01
"1/0365346382.17618",2014-11-29T13:06:26.210,13849,396.00,75.16,74.98,"07:08:46",148.70,-0.150,1.100,98.13,2.87e+02,2,,1.02e+03,1.67e+00,1,2.14e+01
"1/0365346389.53204",2014-11-29T13:06:33.753,13849,394.00,74.69,74.51,"08:26:48",148.36,-0.150,1.100,97.71,1.78e+02,2,,3.93e+02,1.77e+00,1,2.02e+01
"1/0365346397.23319",2014-11-29T13:06:41.297,13849,393.00,74.22,74.03,"09:42:33",148.03,-0.140,1.100,97.29,1.44e+02,2,,2.57e+02,2.03e+00,1,1.76e+01
"1/0365346404.58905",2014-11-29T13:06:48.840,13849,392.00,73.75,73.56,"10:51:26",147.73,-0.130,1.100,96.87,1.86e+02,2,,4.29e+02,2.21e+00,1,1.62e+01
"1/0365346412.28956",2014-11-29T13:06:56.383,13849,391.00,73.28,73.08,"11:58:01",147.44,-0.120,1.100,96.45,1.82e+02,2,,4.11e+02,1.83e+00,2,1.96e+01
"1/0365346419.64542",2014-11-29T13:07:03.926,13849,390.00,72.81,72.61,"13:00:01",147.17,-0.110,1.100,96.03,1.69e+02,2,,3.54e+02,1.66e+00,1,2.15e+01
"1/0365346427.34592",2014-11-29T13:07:11.469,13849,389.00,72.33,72.13,"13:57:26",146.92,-0.100,1.100,95.61,1.25e+02,2,,1.94e+02,1.77e+00,1,2.02e+01
"1/0365346435.04707",2014-11-29T13:07:19.013,13849,388.00,71.86,71.65,"14:52:34",146.68,-0.100,1.100,95.19,1.40e+02,2,,2.43e+02,1.86e+00,1,1.92e+01
"1/0365346442.40293",2014-11-29T13:07:26.556,13849,388.00,71.39,71.17,"15:45:24",146.45,-0.090,1.100,94.77,1.97e+02,2,,4.81e+02,2.42e+00,1,1.48e+01
"1/0365346450.10343",2014-11-29T13:07:34.099,13849,387.00,70.91,70.69,"16:33:39",146.24,-0.080,1.110,94.35,2.22e+02,2,,6.11e+02,2.40e+00,1,1.49e+01
"1/0365346457.45929",2014-11-29T13:07:41.642,13849,387.00,70.44,70.21,"17:19:37",146.04,-0.070,1.110,93.93,2.88e+02,2,,1.03e+03,2.05e+00,2,1.75e+01